Flag for U.S.A. Weather past 2 weeks in St. Paul, Minnesota, U.S.A.

32 °F


Feels Like: 26 °F
Forecast: 28 / 34 °F
Wind: 7 mph from Northeast

Location: St. Paul Downtown Holman Field

Current Time: Nov 30, 2015 at 11:27:47 AM

Latest Report: Nov 30, 2015 at 10:53 AM

Visibility: 10 mi

Pressure: 30.19 "Hg

Humidity: 82%

Dew point: 27 °F

Location of St. PaulLocation

Historic Weather in St. Paul — Graph


St. Paul temperature yesterday

Maximum temperature yesterday: 33 °F (at 1:53 PM)
Minimum temperature yesterday: 18 °F (at 1:53 AM)
Average temperature yesterday: 28 °F

Past Weeks' High & Low Weather Summary

High61 °F (Nov 15, 1:53 PM)100% (Nov 17, 5:53 PM)30.67 "Hg (Nov 17, 5:53 PM)
Low14 °F (Nov 28, 4:53 AM)38% (Nov 19, 9:53 PM)29.09 "Hg (Nov 18, 2:53 PM)
Average35 °F75%30.06 "Hg
* Reported Nov 15 9:53 AM — Nov 30 9:53 AM, St. Paul, Weather by CustomWeather, © 2015

Note: Actual official high and low records may vary slightly from our data, if they occured in-between our weather recording intervals... More about our weather records


St. Paul weather history for previous 24 hours

Time TempWeatherWind HumidityBarometerVisibility
9:53 AM
Mon, Nov 30
32 °FOvercast.No wind85%30.20 "Hg10 mi
8:53 AM30 °FLight snow. Overcast.No wind89%30.22 "Hg7 mi
7:53 AM30 °FLight snow. Ice fog.6 mph89%30.22 "Hg3 mi
7:01 AM30 °FLight snow. Ice fog.3 mph92%30.22 "Hg1 mi
6:53 AM30 °FLight snow. Ice fog.3 mph96%30.24 "Hg2 mi
5:53 AM29 °FSnow. Ice fog.5 mph96%30.26 "Hg1 mi
4:57 AM30 °FLight snow. Ice fog.3 mph85%30.26 "Hg1 mi
3:53 AM32 °FOvercast.5 mph73%30.27 "Hg10 mi
2:53 AM32 °FOvercast.3 mph69%30.29 "Hg10 mi
1:53 AM32 °FOvercast.5 mph73%30.29 "Hg10 mi
12:53 AM32 °FOvercast.No wind73%30.31 "Hg10 mi
11:53 PM
Sun, Nov 29
32 °FOvercast.No wind69%30.32 "Hg10 mi
10:53 PM32 °FOvercast.3 mph69%30.32 "Hg10 mi
9:53 PM32 °FOvercast.5 mph69%30.34 "Hg10 mi
8:53 PM32 °FOvercast.No wind73%30.34 "Hg10 mi
7:53 PM32 °FOvercast.No wind73%30.35 "Hg10 mi
6:53 PM32 °FOvercast.No wind69%30.36 "Hg10 mi
5:53 PM32 °FOvercast.3 mph66%30.35 "Hg10 mi
4:53 PM32 °FMostly cloudy.5 mph66%30.35 "Hg10 mi
3:53 PM32 °FOvercast.5 mph64%30.37 "Hg10 mi
2:53 PM33 °FOvercast.3 mph61%30.38 "Hg10 mi
1:53 PM33 °FOvercast.No wind61%30.38 "Hg10 mi
12:53 PM31 °FOvercast.No wind67%30.40 "Hg10 mi
11:53 AM30 °FOvercast.6 mph69%30.42 "Hg10 mi
Weather by CustomWeather, © 2015

See weather overviewHow to use our weather pages